Location: Mahannah Oil Field
(37.4664°N, 96.6003°W)
Time: 14:19:45
(UTC+00:00)

SR - Visible Passes

Search period start: 23 January 2021 00:00
Search period end: 02 February 2021 00:00
Orbit: 575 x 880 km, 66.7° (Epoch: 22 January)

Date Brightness Start Highest point End Pass type
(mag) Time Alt. Az. Time Alt. Az. Time Alt. Az.
23 Jan ? 11:16:18 30° NNE 11:16:18 30° NNE 11:19:01 10° NNE visible
24 Jan ? 10:28:28 14° NE 10:28:28 14° NE 10:29:11 10° NE visible
24 Jan ? 12:07:54 17° NNW 12:07:54 17° NNW 12:10:18 10° N visible
25 Jan ? 11:19:54 17° N 11:19:54 17° N 11:21:17 10° N visible
27 Jan ? 11:23:03 10° N 11:23:03 10° N 11:23:11 10° N visible
